Ruston, LA

2:44 PM CDT on September 28, 2016 (GMT -0500)
Ruston Regional

Weather History for KRSN - December, 2013

Change the Weather History Date:

Saturday, December 21, 2013

  Actual Average Record
Temperature  
Mean Temperature 63 °F -  
Max Temperature 72 °F 58 °F 80 °F (2001)
Min Temperature 54 °F 37 °F 17 °F (1980)
Degree Days  
Heating Degree Days 2    
Growing Degree Days 13 (Base 50)    
Moisture  
Dew Point 63 °F    
Average Humidity 93    
Maximum Humidity 100    
Minimum Humidity 84    
Precipitation  
Precipitation 1.06 in - - ()
Sea Level Pressure  
Sea Level Pressure 29.71 in    
Wind  
Wind Speed 13 mph (SSW)    
Max Wind Speed 25 mph    
Max Gust Speed 32 mph    
Visibility 8 miles    
Events Rain , Thunderstorm    
Averages and records for this station are not official NWS values.
T = Trace of Precipitation, MM = Missing Value Source: NWS Daily Summary

Daily Weather History Graph

Daily Weather History Graph

Search for Another Location

Airport or City:

Trip Planner

Search our weather history database for the weather conditions in past years. The results will help you decide how hot, cold, wet, or windy it might be!

Date:

Astronomy

Dec. 21, 2013 Rise Set
Actual Time 7:08 AM CST 5:09 PM CST
Civil Twilight 6:41 AM CST 5:36 PM CST
Nautical Twilight 6:10 AM CST 6:07 PM CST
Astronomical Twilight 5:40 AM CST 6:37 PM CST
Moon 9:13 PM CST (12/21) 9:45 AM CST (12/21)
Length of Visible Light 10h 55m
Length of Day
10h 00m
Waning Gibbous, 84% of the Moon is Illuminated
Dec 21
Waning Gibbous
Dec 25
Last Quarter
Jan 1
New
Jan 7
First Quarter
Jan 15
Full

Hourly Weather History & Observations

Time (CST) Temp. Dew Point Humidity Pressure Visibility Wind Dir Wind Speed Gust Speed Precip Events Conditions
12:15 AM 69.8 °F 67.1 °F 91% 29.83 in 10.0 mi South 11.5 mph 23.0 mph N/A   Overcast
12:35 AM 70.2 °F 66.6 °F 88% 29.82 in 10.0 mi South 11.5 mph - N/A   Overcast
12:55 AM 70.3 °F 66.2 °F 87% 29.81 in 10.0 mi South 18.4 mph 23.0 mph N/A   Overcast
1:15 AM 70.5 °F 66.2 °F 86% 29.81 in 10.0 mi South 18.4 mph - N/A   Overcast
1:35 AM 70.7 °F 66.2 °F 86% 29.80 in 10.0 mi South 15.0 mph 23.0 mph N/A   Overcast
1:55 AM 70.3 °F 65.8 °F 86% 29.80 in 10.0 mi South 11.5 mph 19.6 mph N/A   Overcast
2:15 AM 70.5 °F 66.0 °F 86% 29.79 in 10.0 mi South 12.7 mph 23.0 mph N/A   Overcast
2:35 AM 70.7 °F 66.2 °F 86% 29.78 in 10.0 mi SSE 13.8 mph 21.9 mph N/A   Overcast
2:55 AM 70.7 °F 66.0 °F 85% 29.77 in 10.0 mi South 12.7 mph 20.7 mph N/A   Overcast
3:15 AM 70.7 °F 65.8 °F 85% 29.77 in 10.0 mi South 12.7 mph 21.9 mph N/A   Overcast
3:35 AM 70.9 °F 65.8 °F 84% 29.77 in 10.0 mi South 12.7 mph - N/A   Overcast
3:55 AM 70.7 °F 65.8 °F 85% 29.76 in 10.0 mi South 10.4 mph 18.4 mph N/A   Overcast
4:15 AM 70.7 °F 65.8 °F 85% 29.75 in 10.0 mi South 10.4 mph - N/A   Overcast
4:35 AM 70.7 °F 65.7 °F 84% 29.74 in 10.0 mi South 15.0 mph 18.4 mph N/A   Overcast
4:55 AM 70.7 °F 66.0 °F 85% 29.73 in 10.0 mi South 18.4 mph 24.2 mph N/A   Light Drizzle
5:15 AM 70.7 °F 66.2 °F 86% 29.71 in 10.0 mi South 16.1 mph 26.5 mph N/A   Overcast
5:35 AM 70.7 °F 66.2 °F 86% 29.71 in 10.0 mi South 16.1 mph 23.0 mph N/A   Overcast
5:55 AM 69.8 °F 66.6 °F 89% 29.70 in 7.0 mi South 17.3 mph 24.2 mph N/A Rain Rain
6:15 AM 69.1 °F 67.1 °F 93% 29.70 in 7.0 mi South 15.0 mph 21.9 mph N/A   Light Drizzle
6:35 AM 69.1 °F 67.5 °F 95% 29.71 in 5.0 mi South 15.0 mph - N/A Rain Rain
6:55 AM 69.3 °F 68.0 °F 96% 29.71 in 7.0 mi South 16.1 mph 24.2 mph 0.01 in Rain Rain
7:15 AM 68.9 °F 68.9 °F 100% 29.71 in 10.0 mi South 17.3 mph 21.9 mph N/A   Overcast
7:35 AM 69.4 °F 69.4 °F 100% 29.71 in 10.0 mi South 16.1 mph 25.3 mph N/A   Overcast
7:55 AM 70.2 °F 68.0 °F 93% 29.72 in 10.0 mi South 19.6 mph 23.0 mph N/A   Overcast
8:15 AM 70.7 °F 68.0 °F 91% 29.72 in 10.0 mi SSW 17.3 mph 28.8 mph N/A   Overcast
8:35 AM 70.7 °F 67.6 °F 90% 29.72 in 10.0 mi SSW 13.8 mph 23.0 mph N/A   Overcast
8:55 AM 70.7 °F 67.6 °F 90% 29.71 in 10.0 mi South 17.3 mph 25.3 mph N/A Rain Light Rain
9:15 AM 71.2 °F 67.8 °F 89% 29.70 in 10.0 mi South 16.1 mph 24.2 mph N/A   Overcast
9:35 AM 71.4 °F 67.5 °F 87% 29.70 in 10.0 mi South 15.0 mph 21.9 mph N/A   Overcast
9:55 AM 70.0 °F 68.0 °F 93% 29.70 in 3.0 mi South 13.8 mph 18.4 mph 0.07 in Rain Light Rain
10:15 AM 70.0 °F 68.2 °F 94% 29.70 in 10.0 mi South 16.1 mph 23.0 mph N/A Rain Light Rain
10:35 AM 70.7 °F 68.4 °F 92% 29.68 in 10.0 mi South 17.3 mph 23.0 mph N/A   Overcast
10:55 AM 71.2 °F 68.5 °F 91% 29.67 in 10.0 mi South 18.4 mph 27.6 mph N/A   Overcast
11:15 AM 71.6 °F 68.0 °F 88% 29.67 in 10.0 mi South 17.3 mph 25.3 mph N/A Thunderstorm Overcast
11:35 AM 71.4 °F 68.0 °F 89% 29.65 in 4.0 mi South 18.4 mph 27.6 mph 0.04 in Rain , Thunderstorm Heavy Thunderstorms and Rain
11:55 AM 70.5 °F 68.4 °F 93% 29.63 in 5.0 mi South 16.1 mph 23.0 mph 0.09 in Rain , Thunderstorm Rain
12:15 PM 70.5 °F 68.5 °F 93% 29.61 in 4.0 mi South 16.1 mph 25.3 mph 0.08 in Rain , Thunderstorm Heavy Thunderstorms and Rain
12:35 PM 70.7 °F 69.4 °F 96% 29.61 in 7.0 mi SSW 15.0 mph 23.0 mph 0.14 in Rain Light Rain
12:55 PM 71.8 °F 68.9 °F 91% 29.60 in 10.0 mi SSW 16.1 mph 26.5 mph 0.14 in   Overcast
1:15 PM 71.8 °F 69.1 °F 91% 29.59 in 10.0 mi SSW 17.3 mph 23.0 mph N/A   Overcast
1:35 PM 72.0 °F 69.1 °F 91% 29.56 in 10.0 mi South 16.1 mph 24.2 mph N/A Rain , Thunderstorm Light Thunderstorms and Rain
1:55 PM 72.0 °F 69.1 °F 91% 29.55 in 10.0 mi SSW 18.4 mph 26.5 mph N/A Thunderstorm Overcast
2:15 PM 71.6 °F 69.3 °F 92% 29.54 in 7.0 mi South 11.5 mph 17.3 mph 0.04 in Rain , Thunderstorm Light Thunderstorms and Rain
2:35 PM 71.8 °F 69.3 °F 92% 29.52 in 10.0 mi South 18.4 mph 27.6 mph 0.05 in   Light Drizzle
2:55 PM 72.9 °F 69.1 °F 88% 29.53 in 10.0 mi South 25.3 mph 32.2 mph 0.05 in   Overcast
3:15 PM 72.9 °F 68.9 °F 87% 29.52 in 10.0 mi South 24.2 mph 29.9 mph N/A   Overcast
3:35 PM 72.5 °F 68.9 °F 88% 29.53 in - North - - N/A   Unknown
3:55 PM 56.7 °F 56.3 °F 99% 29.64 in 3.0 mi NW 16.1 mph 28.8 mph 0.27 in Rain , Thunderstorm Thunderstorms and Rain
4:15 PM 55.9 °F 55.9 °F 100% 29.66 in 5.0 mi NW 11.5 mph 20.7 mph 0.14 in Rain , Thunderstorm Heavy Thunderstorms and Rain
4:35 PM 55.8 °F 55.8 °F 100% 29.69 in 7.0 mi NW 8.1 mph - 0.23 in Rain , Thunderstorm Heavy Thunderstorms and Rain
4:55 PM 55.8 °F 55.8 °F 100% 29.68 in 7.0 mi NNW 8.1 mph - 0.28 in Rain , Thunderstorm Heavy Thunderstorms and Rain
5:15 PM 56.3 °F 56.3 °F 100% 29.67 in 10.0 mi North 5.8 mph - 0.02 in Rain Rain
5:35 PM 56.1 °F 55.2 °F 97% 29.66 in 10.0 mi NNW 8.1 mph - 0.04 in Rain Light Rain
5:55 PM 56.1 °F 54.9 °F 96% 29.67 in 10.0 mi North 3.5 mph - 0.05 in Rain Light Rain
6:15 PM 56.3 °F 54.9 °F 95% 29.71 in 10.0 mi Calm Calm - 0.02 in Rain Rain
6:35 PM 56.1 °F 55.2 °F 97% 29.71 in 10.0 mi Calm Calm - 0.07 in Rain Rain
6:55 PM 55.9 °F 55.6 °F 99% 29.71 in 10.0 mi Calm Calm - 0.09 in Rain , Thunderstorm Light Thunderstorms and Rain
7:15 PM 56.1 °F 55.6 °F 98% 29.70 in 10.0 mi Calm Calm - N/A   Scattered Clouds
7:35 PM 55.8 °F 55.8 °F 100% 29.74 in 10.0 mi Calm Calm - N/A   Clear
7:55 PM 55.8 °F 55.8 °F 100% 29.75 in 10.0 mi South 4.6 mph - N/A   Scattered Clouds
8:15 PM 55.4 °F 55.4 °F 100% 29.74 in 10.0 mi Calm Calm - N/A   Clear
8:35 PM 54.9 °F 54.9 °F 100% 29.75 in 10.0 mi Calm Calm - 0.01 in   Clear
8:55 PM 54.7 °F 54.7 °F 100% 29.77 in 10.0 mi Calm Calm - 0.01 in   Clear
9:15 PM 54.9 °F 54.9 °F 100% 29.79 in 10.0 mi SW 4.6 mph - N/A   Mostly Cloudy
9:35 PM 54.7 °F 54.7 °F 100% 29.80 in 10.0 mi SW 5.8 mph - N/A   Overcast
9:55 PM 54.7 °F 54.7 °F 100% 29.82 in 3.0 mi SW 6.9 mph - N/A   Overcast
10:15 PM 54.7 °F 54.7 °F 100% 29.82 in 1.5 mi WSW 4.6 mph - N/A Thunderstorm Overcast
10:35 PM 54.7 °F 54.7 °F 100% 29.82 in 1.5 mi SW 5.8 mph - N/A   Overcast
10:55 PM 54.5 °F 54.5 °F 100% 29.82 in 1.8 mi SW 3.5 mph - N/A   Overcast
11:15 PM 54.5 °F 54.5 °F 100% 29.83 in 1.5 mi Calm Calm - N/A   Overcast
11:35 PM 54.5 °F 54.5 °F 100% 29.84 in 1.8 mi SSW 8.1 mph - N/A   Overcast
11:55 PM 54.5 °F 54.5 °F 100% 29.85 in 5.0 mi SSW 9.2 mph - N/A   Overcast